Location: ?????????
(53.2086°N, 54.0693°E)
Time: 09:09:04
(UTC+00:00)

Cosmos 2333 Rocket - Pass Details

Date: 08 December 2019
Orbit: 837 x 864 km, 70.8° (Epoch: 22 January)

Event Time Altitude Azimuth Distance (km) Brightness Sun altitude
Rises 12:47:17 0° 177° (S) 3,411 5.8 -5.8°
Reaches altitude 10° 12:49:56 10° 168° (SSE) 2,484 4.9 -6.2°
Maximum altitude 12:54:56 32° 107° (ESE) 1,429 3.1 -6.8°
Drops below altitude 10° 12:59:59 10° 46° (NE) 2,512 4.0 -7.5°
Enters shadow 13:00:38 - 43° (NE) 2,729 4.2 -7.6°
